OpenBCM V1.13 (Linux)

Packet Radio Mailbox

DB0FHN

[JN59NK Nuernberg]

 Login: GUEST





  
UA9FBV > KEPS     24.10.04 07:36l 277 Lines 7265 Bytes #999 (0) @ AMSAT
BID : ORB04297.D
Read: GUEST
Subj: Orbital Elements  04297.MICROS
Path: DB0FHN<DB0FOR<DB0MRW<DB0HOT<OK0PBX<OK0PHK<OK0NAG<OK0PPL<RZ6HXA<ER3KAZ<
      UA9FBV
Sent: 041024/0531Z @:UA9FBV.PRM.RUS.AS #:6659 [Perm] GATEWAY $:ORB04297.D
From: UA9FBV@UA9FBV.PRM.RUS.AS
To  : KEPS@AMSAT


HR AMSAT ORBITAL ELEMENTS FOR THE MICROSATS
FROM WA5QGD FORT WORTH,TX October 23, 2004
SEND SUBSCRIBE/UNSUBSCRIBE TO majordomo@amsat.org ONLY
BID: ORB04297.D
TO ALL RADIO AMATEURS BT

Satellite: UO-14
Catalog number: 20437
Epoch time:      04297.01540501
Element set:     621
Inclination:       98.2053 deg
RA of node:       313.9252 deg
Eccentricity:    0.0010501
Arg of perigee:   175.5103 deg
Mean anomaly:     184.6187 deg
Mean motion:   14.31375834 rev/day
Decay rate:        3.9e-07 rev/day^2
Epoch rev:           77010
Checksum:              261

Satellite: AO-16
Catalog number: 20439
Epoch time:      04297.55254270
Element set:     309
Inclination:       98.2318 deg
RA of node:       329.2017 deg
Eccentricity:    0.0011236
Arg of perigee:   181.4629 deg
Mean anomaly:     178.6533 deg
Mean motion:   14.31634430 rev/day
Decay rate:        2.6e-07 rev/day^2
Epoch rev:           77023
Checksum:              288

Satellite: WO-18
Catalog number: 20441
Epoch time:      04297.77918445
Element set:     499
Inclination:       98.2478 deg
RA of node:       333.5179 deg
Eccentricity:    0.0011436
Arg of perigee:   180.9840 deg
Mean anomaly:     179.1319 deg
Mean motion:   14.31709578 rev/day
Decay rate:        3.9e-07 rev/day^2
Epoch rev:           77032
Checksum:              341

Satellite: LO-19
Catalog number: 20442
Epoch time:      04296.63763368
Element set:     240
Inclination:       98.2615 deg
RA of node:       336.5663 deg
Eccentricity:    0.0011546
Arg of perigee:   184.7421 deg
Mean anomaly:     175.3649 deg
Mean motion:   14.31881147 rev/day
Decay rate:        4.6e-07 rev/day^2
Epoch rev:           77022
Checksum:              310

Satellite: UO-22
Catalog number: 21575
Epoch time:      04296.75408260
Element set:     235
Inclination:       98.2111 deg
RA of node:       265.5035 deg
Eccentricity:    0.0008502
Arg of perigee:    87.0741 deg
Mean anomaly:     273.1406 deg
Mean motion:   14.39422458 rev/day
Decay rate:       1.02e-06 rev/day^2
Epoch rev:           69634
Checksum:              283

Satellite: KO-23
Catalog number: 22077
Epoch time:      04295.93885640
Element set:    0309
Inclination:      066.0859 deg
RA of node:       285.4039 deg
Eccentricity:    0.0010690
Arg of perigee:   310.9680 deg
Mean anomaly:     049.0413 deg
Mean motion:   12.86426317 rev/day
Decay rate:       -3.7e-07 rev/day^2
Epoch rev:           57294
Checksum:              316

Satellite: AO-27
Catalog number: 22825
Epoch time:      04297.40949702
Element set:     969
Inclination:       98.2462 deg
RA of node:       299.5828 deg
Eccentricity:    0.0007682
Arg of perigee:   239.1870 deg
Mean anomaly:     120.8565 deg
Mean motion:   14.29090160 rev/day
Decay rate:        2.8e-07 rev/day^2
Epoch rev:           57740
Checksum:              339

Satellite: IO-26
Catalog number: 22826
Epoch time:      04297.55070207
Element set:     643
Inclination:       98.2442 deg
RA of node:       301.0025 deg
Eccentricity:    0.0008027
Arg of perigee:   243.2517 deg
Mean anomaly:     116.7834 deg
Mean motion:   14.29327601 rev/day
Decay rate:        4.7e-07 rev/day^2
Epoch rev:           57748
Checksum:              288

Satellite: KO-25
Catalog number: 22828
Epoch time:      04297.60015257
Element set:     905
Inclination:       98.2375 deg
RA of node:       301.2818 deg
Eccentricity:    0.0009339
Arg of perigee:   215.5847 deg
Mean anomaly:     144.4717 deg
Mean motion:   14.29646894 rev/day
Decay rate:        9.5e-07 rev/day^2
Epoch rev:           54571
Checksum:              332

Satellite: TO-31
Catalog number: 25396
Epoch time:      04297.20999315
Element set:      89
Inclination:       98.5626 deg
RA of node:         5.2093 deg
Eccentricity:    0.0003320
Arg of perigee:   136.3095 deg
Mean anomaly:     223.8349 deg
Mean motion:   14.23638069 rev/day
Decay rate:       -4.3e-07 rev/day^2
Epoch rev:           32669
Checksum:              314

Satellite: GO-32
Catalog number: 25397
Epoch time:      04296.98548406
Element set:     586
Inclination:       98.5519 deg
RA of node:         2.9438 deg
Eccentricity:    0.0001922
Arg of perigee:   140.7421 deg
Mean anomaly:     219.4024 deg
Mean motion:   14.23054939 rev/day
Decay rate:       -1.0e-07 rev/day^2
Epoch rev:           32659
Checksum:              311

Satellite: UO-36
Catalog number: 25693
Epoch time:      04297.59397039
Element set:     573
Inclination:       64.5579 deg
RA of node:       290.2539 deg
Eccentricity:    0.0044731
Arg of perigee:   242.3948 deg
Mean anomaly:     117.2609 deg
Mean motion:   14.78398754 rev/day
Decay rate:        2.2e-07 rev/day^2
Epoch rev:           29684
Checksum:              359

Satellite: SO-41
Catalog number: 26545
Epoch time:      04297.07398292
Element set:     909
Inclination:       64.5585 deg
RA of node:       307.8789 deg
Eccentricity:    0.0023479
Arg of perigee:   347.5008 deg
Mean anomaly:      12.5530 deg
Mean motion:   14.79883029 rev/day
Decay rate:       3.05e-06 rev/day^2
Epoch rev:           21983
Checksum:              342

Satellite: MO-46
Catalog number: 26548
Epoch time:      04297.16348612
Element set:       9
Inclination:       64.5575 deg
RA of node:       293.1715 deg
Eccentricity:    0.0023473
Arg of perigee:   332.0047 deg
Mean anomaly:      27.9776 deg
Mean motion:   14.82442876 rev/day
Decay rate:       5.30e-06 rev/day^2
Epoch rev:           22014
Checksum:              306

Satellite: SO-42
Catalog number: 26549
Epoch time:      04295.53239069
Element set:     971
Inclination:       64.5571 deg
RA of node:       319.9565 deg
Eccentricity:    0.0023037
Arg of perigee:     0.6276 deg
Mean anomaly:     359.4850 deg
Mean motion:   14.78772851 rev/day
Decay rate:       1.79e-06 rev/day^2
Epoch rev:           21946
Checksum:              341

Satellite: NO-44
Catalog number: 26931
Epoch time:      04297.04334213
Element set:     880
Inclination:       67.0504 deg
RA of node:       118.5402 deg
Eccentricity:    0.0006884
Arg of perigee:   272.2662 deg
Mean anomaly:      87.7678 deg
Mean motion:   14.29328177 rev/day
Decay rate:       -9.6e-07 rev/day^2
Epoch rev:           15987
Checksum:              327

Satellite: AO-49
Catalog number: 27605
Epoch time:      04297.84251038
Element set:     568
Inclination:       64.5568 deg
RA of node:       133.8760 deg
Eccentricity:    0.0084148
Arg of perigee:   286.2527 deg
Mean anomaly:      72.9307 deg
Mean motion:   14.71947307 rev/day
Decay rate:        8.6e-07 rev/day^2
Epoch rev:            9906
Checksum:              344

Satellite: SO-50
Catalog number: 27607
Epoch time:      04297.83934151
Element set:     549
Inclination:       64.5570 deg
RA of node:       138.2082 deg
Eccentricity:    0.0085254
Arg of perigee:   285.3385 deg
Mean anomaly:      73.8274 deg
Mean motion:   14.70750272 rev/day
Decay rate:       2.36e-06 rev/day^2
Epoch rev:            9897
Checksum:              330

Satellite: AO-51
Catalog number: 28375
Epoch time:      04297.18641810
Element set:      91
Inclination:       98.2460 deg
RA of node:         2.7274 deg
Eccentricity:    0.0083330
Arg of perigee:   226.4376 deg
Mean anomaly:     132.9859 deg
Mean motion:   14.40397061 rev/day
Decay rate:        3.4e-07 rev/day^2
Epoch rev:            1649
Checksum:              300



Read previous mail | Read next mail


 21.06.2026 01:35:27lGo back Go up